This is the latest recevied weather packets stored in our database for station/object KE4EST. If no packets are shown the sender has not sent any weather packets the latest 1 day(s).
| Time | Temp. | Humidity | Pressure | Rain* | Wind** | Luminosity | Snow |
|---|---|---|---|---|---|---|---|
| 1778105077 | 17.78° C | 99% | 1014.3 hPa | 1.78 mm | - | 25 W/m² | - |
| 1778104470 | 17.78° C | 99% | 1013.9 hPa | 0 mm | - | 8 W/m² | - |
| 1778102651 | 18.33° C | 99% | 1013.4 hPa | 0 mm | - | 48 W/m² | - |
| 1778102346 | 18.33° C | 99% | 1013.3 hPa | 0 mm | - | 48 W/m² | - |
| 1778100526 | 17.78° C | 99% | 1013.6 hPa | 1.78 mm | - | 39 W/m² | - |
| 1778100224 | 18.33° C | 99% | 1014.3 hPa | 3.05 mm | - | 48 W/m² | - |
| 1778099618 | 17.78° C | 99% | 1013.9 hPa | 13.72 mm | - | 91 W/m² | - |
| 1778099315 | 17.78° C | 99% | 1014.5 hPa | 11.94 mm | - | 17 W/m² | - |
| 1778097495 | 17.78° C | 99% | 1014.6 hPa | 10.67 mm | - | 7 W/m² | - |
| 1778095980 | 18.33° C | 99% | 1014.3 hPa | 7.87 mm | - | 30 W/m² | - |
| 1778095676 | 17.78° C | 99% | 1014.3 hPa | 6.1 mm | - | 32 W/m² | - |
| 1778094160 | 18.33° C | 98% | 1015.5 hPa | 9.65 mm | - | 13 W/m² | - |
| 1778093251 | 18.89° C | 96% | 1015.4 hPa | 0 mm | - | 29 W/m² | - |
| 1778092948 | 18.89° C | 95% | 1015.4 hPa | 0 mm | - | 23 W/m² | - |
| 1778092038 | 19.44° C | 95% | 1015.4 hPa | 0 mm | - | 91 W/m² | - |
| 1778091735 | 18.89° C | 94% | 1015.2 hPa | 0 mm | - | 87 W/m² | - |
| 1778091433 | 19.44° C | 93% | 1015.2 hPa | 0 mm | - | 91 W/m² | - |
| 1778091130 | 19.44° C | 94% | 1015.6 hPa | 0 mm | - | 163 W/m² | - |
| 1778090523 | 19.44° C | 93% | 1015.2 hPa | 0 mm | - | 172 W/m² | - |
| 1778088700 | 18.89° C | 98% | 1015.4 hPa | 0 mm | - | 111 W/m² | - |
| 1778088093 | 18.89° C | 97% | 1015.2 hPa | 0 mm | - | 120 W/m² | - |
| 1778087791 | 18.89° C | 97% | 1015.2 hPa | 0 mm | - | 147 W/m² | - |
| 1778086277 | 17.78° C | 99% | 1015 hPa | 0 mm | - | 224 W/m² | - |
| 1778084451 | 17.22° C | 99% | 1014.6 hPa | 0 mm | - | 137 W/m² | - |
| 1778083840 | 17.22° C | 99% | 1014.9 hPa | 0 mm | - | 165 W/m² | - |
* Rain latest hour (hover to see other rain measurements)
** Current wind speed in m/s (hover to see current wind gust speed)